Time,TemperatureF,DewpointF,PressureIn,WindDirection,WindDirectionDegrees,WindSpeedMPH,WindSpeedGustMPH,Humidity,HourlyPrecipIn,Conditions,Clouds,dailyrainin,SoftwareType,DateUTC
2013-01-30 00:04:00,64.0,56.0,29.66,SSE,167,8.0,-999.0,76,-99.99,,,-99.99,,2013-01-30 05:04:00,
2013-01-30 00:12:00,64.0,56.0,29.65,SSW,202,8.0,-999.0,75,-99.99,,,-99.99,,2013-01-30 05:12:00,
2013-01-30 00:22:00,64.0,56.0,29.65,SSW,202,8.0,-999.0,75,-99.99,,,-99.99,,2013-01-30 05:22:00,
2013-01-30 00:32:00,65.0,56.0,29.64,South,180,10.0,-999.0,74,-99.99,,,-99.99,,2013-01-30 05:32:00,
2013-01-30 00:43:00,65.0,56.0,29.64,South,180,10.0,-999.0,74,-99.99,,,-99.99,,2013-01-30 05:43:00,
2013-01-30 00:52:00,65.0,56.0,29.62,SSE,154,12.0,-999.0,74,-99.99,,,-99.99,,2013-01-30 05:52:00,
2013-01-30 01:02:00,65.0,56.0,29.61,South,171,11.0,-999.0,73,-99.99,,,-99.99,,2013-01-30 06:02:00,
2013-01-30 01:12:00,65.0,56.0,29.61,South,171,11.0,-999.0,73,-99.99,,,-99.99,,2013-01-30 06:12:00,
2013-01-30 01:21:00,66.0,57.0,29.59,South,185,13.0,-999.0,72,-99.99,,,-99.99,,2013-01-30 06:21:00,
2013-01-30 01:32:00,66.0,57.0,29.58,SE,146,10.0,-999.0,72,-99.99,,,-99.99,,2013-01-30 06:32:00,
2013-01-30 01:42:00,66.0,57.0,29.58,SE,146,10.0,-999.0,72,-99.99,,,-99.99,,2013-01-30 06:42:00,
2013-01-30 01:52:00,66.0,57.0,29.56,SSW,198,12.0,-999.0,72,-99.99,,,-99.99,,2013-01-30 06:52:00,
2013-01-30 02:02:00,66.0,56.0,29.56,SSE,163,14.0,-999.0,71,-99.99,,,-99.99,,2013-01-30 07:02:00,
2013-01-30 02:12:00,66.0,56.0,29.56,SSE,163,14.0,-999.0,71,-99.99,,,-99.99,,2013-01-30 07:12:00,
2013-01-30 02:21:00,66.0,56.0,29.56,SSE,148,14.0,-999.0,71,-99.99,,,-99.99,,2013-01-30 07:21:00,
2013-01-30 02:32:00,66.0,56.0,29.56,SSW,194,15.0,-999.0,71,-99.99,,,-99.99,,2013-01-30 07:32:00,
2013-01-30 02:42:00,66.0,56.0,29.56,SSW,194,15.0,-999.0,71,-99.99,,,-99.99,,2013-01-30 07:42:00,
2013-01-30 02:52:00,67.0,57.0,29.55,SSE,159,15.0,-999.0,70,-99.99,,,-99.99,,2013-01-30 07:52:00,
2013-01-30 03:02:00,67.0,57.0,29.53,SSW,209,14.0,-999.0,70,-99.99,,,-99.99,,2013-01-30 08:02:00,
2013-01-30 03:11:00,67.0,57.0,29.53,SSW,209,14.0,-999.0,70,-99.99,,,-99.99,,2013-01-30 08:11:00,
2013-01-30 03:21:00,67.0,57.0,29.52,SSW,202,13.0,-999.0,71,-99.99,,,-99.99,,2013-01-30 08:21:00,
2013-01-30 03:32:00,67.0,57.0,29.49,SSW,205,13.0,-999.0,71,-99.99,,,-99.99,,2013-01-30 08:32:00,
2013-01-30 03:42:00,67.0,57.0,29.49,SSW,205,13.0,-999.0,71,-99.99,,,-99.99,,2013-01-30 08:42:00,
2013-01-30 03:52:00,67.0,57.0,29.50,SSE,165,13.0,-999.0,71,-99.99,,,-99.99,,2013-01-30 08:52:00,
2013-01-30 04:02:00,67.0,57.0,29.49,SSE,165,12.0,-999.0,71,-99.99,,,-99.99,,2013-01-30 09:02:00,
2013-01-30 04:11:00,67.0,57.0,29.49,SSE,165,12.0,-999.0,71,-99.99,,,-99.99,,2013-01-30 09:11:00,
2013-01-30 04:22:00,67.0,57.0,29.49,SSW,196,11.0,-999.0,71,-99.99,,,-99.99,,2013-01-30 09:22:00,
2013-01-30 04:32:00,67.0,57.0,29.46,South,175,9.0,-999.0,71,-99.99,,,-99.99,,2013-01-30 09:32:00,
2013-01-30 04:42:00,67.0,57.0,29.46,South,175,9.0,-999.0,71,-99.99,,,-99.99,,2013-01-30 09:42:00,
2013-01-30 04:51:00,67.0,58.0,29.45,SSW,194,10.0,-999.0,72,-99.99,,,-99.99,,2013-01-30 09:51:00,
2013-01-30 05:02:00,67.0,57.0,29.44,SW,215,12.0,-999.0,70,-99.99,,,-99.99,,2013-01-30 10:02:00,
2013-01-30 05:12:00,67.0,57.0,29.44,SW,215,12.0,-999.0,70,-99.99,,,-99.99,,2013-01-30 10:12:00,
2013-01-30 05:21:00,68.0,57.0,29.41,SSE,161,12.0,-999.0,69,-99.99,,,-99.99,,2013-01-30 10:21:00,
2013-01-30 05:32:00,68.0,57.0,29.39,SW,219,14.0,-999.0,69,-99.99,,,-99.99,,2013-01-30 10:32:00,
2013-01-30 05:42:00,68.0,57.0,29.39,SW,219,14.0,-999.0,69,-99.99,,,-99.99,,2013-01-30 10:42:00,
2013-01-30 05:52:00,68.0,57.0,29.39,SSE,155,15.0,-999.0,68,-99.99,,,-99.99,,2013-01-30 10:52:00,
2013-01-30 06:02:00,68.0,57.0,29.38,SSW,202,15.0,-999.0,67,-99.99,,,-99.99,,2013-01-30 11:02:00,
2013-01-30 06:11:00,68.0,57.0,29.38,SSW,202,15.0,-999.0,67,-99.99,,,-99.99,,2013-01-30 11:11:00,
2013-01-30 06:22:00,68.0,57.0,29.36,SW,228,13.0,-999.0,67,-99.99,,,-99.99,,2013-01-30 11:22:00,
2013-01-30 06:33:00,68.0,58.0,29.36,SSW,199,14.0,-999.0,70,-99.99,,,-99.99,,2013-01-30 11:33:00,
2013-01-30 06:42:00,68.0,58.0,29.36,SSW,199,14.0,-999.0,70,-99.99,,,-99.99,,2013-01-30 11:42:00,
2013-01-30 06:52:00,60.0,55.0,29.45,WNW,299,13.0,-999.0,84,-99.99,,,-99.99,,2013-01-30 11:52:00,
2013-01-30 07:02:00,59.0,56.0,29.45,West,269,7.0,-999.0,90,-99.99,,,-99.99,,2013-01-30 12:02:00,
2013-01-30 07:12:00,59.0,56.0,29.45,West,269,7.0,-999.0,90,-99.99,,,-99.99,,2013-01-30 12:12:00,
2013-01-30 07:22:00,59.0,56.0,29.47,WNW,294,9.0,-999.0,91,-99.99,,,-99.99,,2013-01-30 12:22:00,
2013-01-30 07:33:00,59.0,56.0,29.52,NW,313,10.0,-999.0,91,-99.99,,,-99.99,,2013-01-30 12:33:00,
2013-01-30 07:43:00,59.0,56.0,29.52,NW,313,10.0,-999.0,91,-99.99,,,-99.99,,2013-01-30 12:43:00,
2013-01-30 08:03:00,56.0,53.0,29.52,WNW,294,3.0,-999.0,91,-99.99,,,-99.99,,2013-01-30 13:03:00,
2013-01-30 08:12:00,56.0,53.0,29.52,WNW,294,3.0,-999.0,91,-99.99,,,-99.99,,2013-01-30 13:12:00,
2013-01-30 08:23:00,56.0,53.0,29.53,WNW,284,1.0,-999.0,91,-99.99,,,-99.99,,2013-01-30 13:23:00,
2013-01-30 08:33:00,55.0,53.0,29.53,West,271,1.0,-999.0,92,-99.99,,,-99.99,,2013-01-30 13:33:00,
2013-01-30 08:43:00,55.0,53.0,29.53,West,271,1.0,-999.0,92,-99.99,,,-99.99,,2013-01-30 13:43:00,
2013-01-30 08:52:00,55.0,53.0,29.58,SSW,201,5.0,-999.0,93,-99.99,,,-99.99,,2013-01-30 13:52:00,
2013-01-30 09:03:00,55.0,53.0,29.56,SSE,166,1.0,-999.0,94,-99.99,,,-99.99,,2013-01-30 14:03:00,
2013-01-30 09:12:00,55.0,53.0,29.56,SSE,166,1.0,-999.0,94,-99.99,,,-99.99,,2013-01-30 14:12:00,
2013-01-30 09:23:00,54.0,53.0,29.53,SSE,166,1.0,-999.0,95,-99.99,,,-99.99,,2013-01-30 14:23:00,
2013-01-30 09:33:00,54.0,53.0,29.52,SSE,166,0.0,-999.0,95,-99.99,,,-99.99,,2013-01-30 14:33:00,
2013-01-30 09:42:00,54.0,53.0,29.52,SSE,166,0.0,-999.0,95,-99.99,,,-99.99,,2013-01-30 14:42:00,
2013-01-30 09:52:00,54.0,53.0,29.51,SSE,162,1.0,-999.0,96,-99.99,,,-99.99,,2013-01-30 14:52:00,
2013-01-30 10:03:00,55.0,54.0,29.50,WNW,293,5.0,-999.0,96,-99.99,,,-99.99,,2013-01-30 15:03:00,
2013-01-30 10:12:00,55.0,54.0,29.50,WNW,293,5.0,-999.0,96,-99.99,,,-99.99,,2013-01-30 15:12:00,
2013-01-30 10:23:00,55.0,54.0,29.52,SSE,156,1.0,-999.0,95,-99.99,,,-99.99,,2013-01-30 15:23:00,
2013-01-30 10:33:00,55.0,54.0,29.50,SSE,163,0.0,-999.0,95,-99.99,,,-99.99,,2013-01-30 15:33:00,
2013-01-30 10:43:00,55.0,54.0,29.50,SSE,163,0.0,-999.0,95,-99.99,,,-99.99,,2013-01-30 15:43:00,
2013-01-30 10:53:00,55.0,54.0,29.49,SSE,163,1.0,-999.0,95,-99.99,,,-99.99,,2013-01-30 15:53:00,
2013-01-30 11:03:00,55.0,54.0,29.49,SSE,163,1.0,-999.0,95,-99.99,,,-99.99,,2013-01-30 16:03:00,
2013-01-30 11:12:00,55.0,54.0,29.49,SSE,163,1.0,-999.0,95,-99.99,,,-99.99,,2013-01-30 16:12:00,
2013-01-30 11:23:00,55.0,54.0,29.50,SSW,196,1.0,-999.0,98,-99.99,,,-99.99,,2013-01-30 16:23:00,
2013-01-30 11:32:00,55.0,54.0,29.47,South,181,1.0,-999.0,96,-99.99,,,-99.99,,2013-01-30 16:32:00,
2013-01-30 11:42:00,55.0,54.0,29.47,South,181,1.0,-999.0,96,-99.99,,,-99.99,,2013-01-30 16:42:00,
2013-01-30 11:52:00,55.0,54.0,29.47,South,181,1.0,-999.0,96,-99.99,,,-99.99,,2013-01-30 16:52:00,
2013-01-30 12:02:00,55.0,54.0,29.47,SSE,160,4.0,-999.0,96,-99.99,,,-99.99,,2013-01-30 17:02:00,
2013-01-30 12:13:00,55.0,54.0,29.47,SSE,160,4.0,-999.0,96,-99.99,,,-99.99,,2013-01-30 17:13:00,
2013-01-30 12:23:00,55.0,54.0,29.45,South,187,5.0,-999.0,96,-99.99,,,-99.99,,2013-01-30 17:23:00,
2013-01-30 12:33:00,55.0,54.0,29.44,SW,214,7.0,-999.0,95,-99.99,,,-99.99,,2013-01-30 17:33:00,
2013-01-30 12:43:00,55.0,54.0,29.44,SW,214,7.0,-999.0,95,-99.99,,,-99.99,,2013-01-30 17:43:00,
2013-01-30 12:53:00,56.0,55.0,29.44,South,174,5.0,-999.0,95,-99.99,,,-99.99,,2013-01-30 17:53:00,
2013-01-30 13:03:00,56.0,55.0,29.42,SE,141,7.0,-999.0,95,-99.99,,,-99.99,,2013-01-30 18:03:00,
2013-01-30 13:13:00,56.0,55.0,29.42,SE,141,7.0,-999.0,95,-99.99,,,-99.99,,2013-01-30 18:13:00,
2013-01-30 13:23:00,56.0,54.0,29.42,SE,136,7.0,-999.0,94,-99.99,,,-99.99,,2013-01-30 18:23:00,
2013-01-30 13:33:00,55.0,52.0,29.39,South,180,6.0,-999.0,91,-99.99,,,-99.99,,2013-01-30 18:33:00,
2013-01-30 13:43:00,55.0,52.0,29.39,South,180,6.0,-999.0,91,-99.99,,,-99.99,,2013-01-30 18:43:00,
2013-01-30 13:52:00,56.0,52.0,29.42,SW,218,10.0,-999.0,88,-99.99,,,-99.99,,2013-01-30 18:52:00,
2013-01-30 14:03:00,55.0,51.0,29.40,South,189,8.0,-999.0,87,-99.99,,,-99.99,,2013-01-30 19:03:00,
2013-01-30 14:13:00,55.0,51.0,29.40,South,189,8.0,-999.0,87,-99.99,,,-99.99,,2013-01-30 19:13:00,
2013-01-30 14:22:00,55.0,51.0,29.38,SSE,160,7.0,-999.0,85,-99.99,,,-99.99,,2013-01-30 19:22:00,
2013-01-30 14:33:00,55.0,50.0,29.41,SSW,192,11.0,-999.0,83,-99.99,,,-99.99,,2013-01-30 19:33:00,
2013-01-30 14:43:00,55.0,50.0,29.41,SSW,192,11.0,-999.0,83,-99.99,,,-99.99,,2013-01-30 19:43:00,
2013-01-30 14:52:00,54.0,48.0,29.36,SSW,203,8.0,-999.0,81,-99.99,,,-99.99,,2013-01-30 19:52:00,
2013-01-30 15:03:00,54.0,49.0,29.37,SSW,213,7.0,-999.0,82,-99.99,,,-99.99,,2013-01-30 20:03:00,
2013-01-30 15:12:00,54.0,49.0,29.37,SSW,213,7.0,-999.0,82,-99.99,,,-99.99,,2013-01-30 20:12:00,
2013-01-30 15:22:00,54.0,49.0,29.39,SSW,193,9.0,-999.0,83,-99.99,,,-99.99,,2013-01-30 20:22:00,
2013-01-30 15:33:00,54.0,48.0,29.38,SSW,198,9.0,-999.0,80,-99.99,,,-99.99,,2013-01-30 20:33:00,
2013-01-30 15:42:00,54.0,48.0,29.38,SSW,198,9.0,-999.0,80,-99.99,,,-99.99,,2013-01-30 20:42:00,
2013-01-30 15:52:00,54.0,47.0,29.38,SSW,207,11.0,-999.0,78,-99.99,,,-99.99,,2013-01-30 20:52:00,
2013-01-30 16:04:00,53.0,46.0,29.38,SSW,202,10.0,-999.0,78,-99.99,,,-99.99,,2013-01-30 21:04:00,
2013-01-30 16:12:00,53.0,46.0,29.38,SSW,202,10.0,-999.0,78,-99.99,,,-99.99,,2013-01-30 21:12:00,
2013-01-30 16:23:00,53.0,46.0,29.39,SSW,199,10.0,-999.0,78,-99.99,,,-99.99,,2013-01-30 21:23:00,
2013-01-30 16:32:00,53.0,46.0,29.38,SSW,213,12.0,-999.0,78,-99.99,,,-99.99,,2013-01-30 21:32:00,
2013-01-30 16:42:00,53.0,46.0,29.38,SSW,213,12.0,-999.0,78,-99.99,,,-99.99,,2013-01-30 21:42:00,
2013-01-30 16:52:00,53.0,47.0,29.36,SW,221,9.0,-999.0,79,-99.99,,,-99.99,,2013-01-30 21:52:00,
2013-01-30 17:03:00,53.0,47.0,29.36,SSW,200,11.0,-999.0,79,-99.99,,,-99.99,,2013-01-30 22:03:00,
2013-01-30 17:12:00,53.0,47.0,29.36,SSW,200,11.0,-999.0,79,-99.99,,,-99.99,,2013-01-30 22:12:00,
2013-01-30 17:22:00,53.0,47.0,29.37,SSW,199,12.0,-999.0,80,-99.99,,,-99.99,,2013-01-30 22:22:00,
2013-01-30 17:32:00,53.0,47.0,29.36,SSW,192,12.0,-999.0,81,-99.99,,,-99.99,,2013-01-30 22:32:00,
2013-01-30 17:42:00,53.0,47.0,29.36,SSW,192,12.0,-999.0,81,-99.99,,,-99.99,,2013-01-30 22:42:00,
2013-01-30 17:52:00,53.0,47.0,29.36,SSW,205,11.0,-999.0,81,-99.99,,,-99.99,,2013-01-30 22:52:00,
2013-01-30 18:02:00,53.0,48.0,29.35,SW,222,10.0,-999.0,82,-99.99,,,-99.99,,2013-01-30 23:02:00,
2013-01-30 18:12:00,53.0,48.0,29.35,SW,222,10.0,-999.0,82,-99.99,,,-99.99,,2013-01-30 23:12:00,
2013-01-30 18:22:00,52.0,47.0,29.36,SW,221,11.0,-999.0,82,-99.99,,,-99.99,,2013-01-30 23:22:00,
2013-01-30 18:33:00,52.0,47.0,29.34,SSW,200,8.0,-999.0,82,-99.99,,,-99.99,,2013-01-30 23:33:00,
2013-01-30 18:42:00,52.0,47.0,29.34,SSW,200,8.0,-999.0,82,-99.99,,,-99.99,,2013-01-30 23:42:00,
2013-01-30 18:52:00,52.0,47.0,29.33,SSW,207,7.0,-999.0,82,-99.99,,,-99.99,,2013-01-30 23:52:00,
2013-01-30 19:02:00,52.0,47.0,29.33,South,186,7.0,-999.0,82,-99.99,,,-99.99,,2013-01-31 00:02:00,
2013-01-30 19:11:00,52.0,47.0,29.33,South,186,7.0,-999.0,82,-99.99,,,-99.99,,2013-01-31 00:11:00,
2013-01-30 19:22:00,52.0,47.0,29.32,South,185,9.0,-999.0,83,-99.99,,,-99.99,,2013-01-31 00:22:00,
2013-01-30 19:32:00,51.0,46.0,29.33,SW,222,8.0,-999.0,84,-99.99,,,-99.99,,2013-01-31 00:32:00,
2013-01-30 19:42:00,51.0,46.0,29.33,SW,222,8.0,-999.0,84,-99.99,,,-99.99,,2013-01-31 00:42:00,
2013-01-30 19:53:00,44.0,40.0,29.41,WNW,282,18.0,-999.0,86,-99.99,,,-99.99,,2013-01-31 00:53:00,
2013-01-30 20:02:00,43.0,39.0,29.42,West,261,15.0,-999.0,85,-99.99,,,-99.99,,2013-01-31 01:02:00,
2013-01-30 20:12:00,43.0,39.0,29.42,West,261,15.0,-999.0,85,-99.99,,,-99.99,,2013-01-31 01:12:00,
2013-01-30 20:22:00,43.0,39.0,29.42,West,259,12.0,-999.0,85,-99.99,,,-99.99,,2013-01-31 01:22:00,
2013-01-30 20:32:00,42.0,38.0,29.43,WNW,282,10.0,-999.0,87,-99.99,,,-99.99,,2013-01-31 01:32:00,
2013-01-30 20:42:00,42.0,38.0,29.43,WNW,282,10.0,-999.0,87,-99.99,,,-99.99,,2013-01-31 01:42:00,
2013-01-30 20:52:00,42.0,38.0,29.44,West,271,8.0,-999.0,87,-99.99,,,-99.99,,2013-01-31 01:52:00,
2013-01-30 21:01:00,41.0,37.0,29.45,WNW,302,11.0,-999.0,86,-99.99,,,-99.99,,2013-01-31 02:01:00,
2013-01-30 21:12:00,41.0,37.0,29.45,WNW,302,11.0,-999.0,86,-99.99,,,-99.99,,2013-01-31 02:12:00,
2013-01-30 21:22:00,41.0,37.0,29.46,WNW,296,12.0,-999.0,84,-99.99,,,-99.99,,2013-01-31 02:22:00,
2013-01-30 21:32:00,40.0,36.0,29.47,WNW,288,9.0,-999.0,85,-99.99,,,-99.99,,2013-01-31 02:32:00,
2013-01-30 21:42:00,40.0,36.0,29.47,WNW,288,9.0,-999.0,85,-99.99,,,-99.99,,2013-01-31 02:42:00,
2013-01-30 21:52:00,40.0,36.0,29.47,WNW,288,9.0,-999.0,85,-99.99,,,-99.99,,2013-01-31 02:52:00,
2013-01-30 22:03:00,36.0,33.0,29.53,WNW,285,9.0,-999.0,89,-99.99,,,-99.99,,2013-01-31 03:03:00,
2013-01-30 22:11:00,36.0,33.0,29.53,WNW,285,9.0,-999.0,89,-99.99,,,-99.99,,2013-01-31 03:11:00,
2013-01-30 22:21:00,35.0,32.0,29.54,WNW,300,11.0,-999.0,89,-99.99,,,-99.99,,2013-01-31 03:21:00,
2013-01-30 22:32:00,35.0,32.0,29.54,West,277,12.0,-999.0,87,-99.99,,,-99.99,,2013-01-31 03:32:00,
2013-01-30 22:42:00,35.0,32.0,29.54,West,277,12.0,-999.0,87,-99.99,,,-99.99,,2013-01-31 03:42:00,
2013-01-30 22:51:00,36.0,30.0,29.55,West,262,13.0,-999.0,79,-99.99,,,-99.99,,2013-01-31 03:51:00,
2013-01-30 23:02:00,35.0,29.0,29.56,SSW,204,12.0,-999.0,77,-99.99,,,-99.99,,2013-01-31 04:02:00,
2013-01-30 23:11:00,35.0,29.0,29.56,SSW,204,12.0,-999.0,77,-99.99,,,-99.99,,2013-01-31 04:11:00,
2013-01-30 23:22:00,35.0,29.0,29.57,WNW,291,14.0,-999.0,77,-99.99,,,-99.99,,2013-01-31 04:22:00,
2013-01-30 23:32:00,35.0,29.0,29.58,WNW,297,11.0,-999.0,78,-99.99,,,-99.99,,2013-01-31 04:32:00,
2013-01-30 23:42:00,35.0,29.0,29.58,WNW,297,11.0,-999.0,78,-99.99,,,-99.99,,2013-01-31 04:42:00,
2013-01-30 23:51:00,34.0,26.0,29.60,WNW,286,13.0,-999.0,73,-99.99,,,-99.99,,2013-01-31 04:51:00,